[Date Prev][Date Next][Thread Prev][Thread Next] - [Date Index][Thread Index][Author Index]

2 Line ISS Keps 1-14



ISS
1 25544U 98067A   03014.15071171  .00030982  00000-0  39437-3 0  5796
2 25544  51.6340  74.0150 0005415  32.4635  62.5632 15.59053393236970


----
Via the sarex mailing list at AMSAT.ORG courtesy of AMSAT-NA.
To unsubscribe, send "unsubscribe sarex" to Majordomo@amsat.org



AMSAT Top AMSAT Home